ZHONGXING-6E

Last updated on Wed Sep 09 2026 00:03:04 GMT+0000 (Coordinated Universal Time)

1 58253U 23172A 26251.46795992 -.00000382 00000+0 00000+0 0 9997 2 58253 0.0081 141.8380 0002387 15.5370 114.1411 1.00272326 10490
UTC large
Height (km)
Speed (km/s)
/
Latitude / Longitude
Inclination (degrees)
Orbital Period (minutes)
Azimuth
Elevation
Range (km)
Doppler Factor

Next 0 passes for location: London (51.5072 / 0.1276)

No passes found over London.
ZHONGXING-6E